Location: �terpigny
(49.8910°N, 2.9249°E)
Time: 11:00:14
(UTC+00:00)

ARGOS - Pass Details

Date: 24 October 2021
Orbit: 820 x 835 km, 98.4° (Epoch: 30 November)

Event Time Altitude Azimuth Distance (km) Brightness Sun altitude
Rises 18:20:50 0° 172° (S) 3,359 6.2 -16.9°
Reaches altitude 10° 18:23:12 10° 175° (S) 2,432 5.5 -17.3°
Maximum altitude 18:28:34 67° 258° (WSW) 904 3.5 -18.2°
Drops below altitude 10° 18:33:59 10° 341° (NNW) 2,457 5.9 -19.1°
Sets 18:36:23 0° 344° (NNW) 3,396 6.6 -19.4°
